iso_date,epoch_date,Year,Hour,Min,DOY,POS_DOY,Lat,Lon,BP,Ts,Ta,has_bp,has_ts,has_ta,BuoyID,Buoy_Type,Buoy_Owner,Logistics,Hemisphere
2020-09-02T10:00:02Z,1599040803,2020,10,0,246.4167,246.4167,88.4345,117.7457,-999.00,-999.00,-999.0,no,no,no,300534061907360,unknown,unknown,unknown,North
2020-09-02T10:30:00Z,1599042600,2020,10,30,246.4375,246.4375,88.4364,117.7806,-999.00,-999.00,-999.0,no,no,no,300534061907360,unknown,unknown,unknown,North
2020-09-02T10:59:57Z,1599044397,2020,11,0,246.4583,246.4583,88.4385,117.814,-999.00,-999.00,-999.0,no,no,no,300534061907360,unknown,unknown,unknown,North
2020-09-02T11:30:02Z,1599046203,2020,11,30,246.4792,246.4792,88.4407,117.8441,-999.00,-999.00,-999.0,no,no,no,300534061907360,unknown,unknown,unknown,North
2020-09-02T12:00:00Z,1599048000,2020,12,0,246.5,246.5,88.4431,117.8749,-999.00,-999.00,-999.0,no,no,no,300534061907360,unknown,unknown,unknown,North
2020-09-02T12:29:57Z,1599049797,2020,12,30,246.5208,246.5208,88.4456,117.9057,-999.00,-999.00,-999.0,no,no,no,300534061907360,unknown,unknown,unknown,North
2020-09-02T13:00:02Z,1599051603,2020,13,0,246.5417,246.5417,88.4483,117.9391,-999.00,-999.00,-999.0,no,no,no,300534061907360,unknown,unknown,unknown,North
2020-09-02T13:30:00Z,1599053400,2020,13,30,246.5625,246.5625,88.4512,117.9772,-999.00,-999.00,-999.0,no,no,no,300534061907360,unknown,unknown,unknown,North
2020-09-02T13:59:57Z,1599055197,2020,14,0,246.5833,246.5833,88.4541,118.0184,-999.00,-999.00,-999.0,no,no,no,300534061907360,unknown,unknown,unknown,North
2020-09-02T14:30:02Z,1599057003,2020,14,30,246.6042,246.6042,88.4571,118.0661,-999.00,-999.00,-999.0,no,no,no,300534061907360,unknown,unknown,unknown,North
2020-09-02T15:00:00Z,1599058800,2020,15,0,246.625,246.625,88.4602,118.1192,-999.00,-999.00,-999.0,no,no,no,300534061907360,unknown,unknown,unknown,North
2020-09-02T15:29:57Z,1599060597,2020,15,30,246.6458,246.6458,88.4633,118.1799,-999.00,-999.00,-999.0,no,no,no,300534061907360,unknown,unknown,unknown,North
2020-09-02T16:00:02Z,1599062403,2020,16,0,246.6667,246.6667,88.4664,118.247,-999.00,-999.00,-999.0,no,no,no,300534061907360,unknown,unknown,unknown,North
2020-09-02T16:30:00Z,1599064200,2020,16,30,246.6875,246.6875,88.4693,118.3153,-999.00,-999.00,-999.0,no,no,no,300534061907360,unknown,unknown,unknown,North
2020-09-02T16:59:57Z,1599065997,2020,17,0,246.7083,246.7083,88.4722,118.3877,-999.00,-999.00,-999.0,no,no,no,300534061907360,unknown,unknown,unknown,North
2020-09-02T17:30:02Z,1599067803,2020,17,30,246.7292,246.7292,88.4751,118.4595,-999.00,-999.00,-999.0,no,no,no,300534061907360,unknown,unknown,unknown,North
2020-09-02T18:00:00Z,1599069600,2020,18,0,246.75,246.75,88.478,118.5318,-999.00,-999.00,-999.0,no,no,no,300534061907360,unknown,unknown,unknown,North
2020-09-02T18:29:57Z,1599071397,2020,18,30,246.7708,246.7708,88.4808,118.6026,-999.00,-999.00,-999.0,no,no,no,300534061907360,unknown,unknown,unknown,North
2020-09-02T19:00:02Z,1599073203,2020,19,0,246.7917,246.7917,88.4835,118.6694,-999.00,-999.00,-999.0,no,no,no,300534061907360,unknown,unknown,unknown,North
2020-09-02T19:30:00Z,1599075000,2020,19,30,246.8125,246.8125,88.4863,118.7302,-999.00,-999.00,-999.0,no,no,no,300534061907360,unknown,unknown,unknown,North
2020-09-02T19:59:57Z,1599076797,2020,20,0,246.8333,246.8333,88.489,118.7812,-999.00,-999.00,-999.0,no,no,no,300534061907360,unknown,unknown,unknown,North
2020-09-02T20:30:02Z,1599078603,2020,20,30,246.8542,246.8542,88.4918,118.8246,-999.00,-999.00,-999.0,no,no,no,300534061907360,unknown,unknown,unknown,North
2020-09-02T21:00:00Z,1599080400,2020,21,0,246.875,246.875,88.4946,118.8608,-999.00,-999.00,-999.0,no,no,no,300534061907360,unknown,unknown,unknown,North
2020-09-02T21:29:57Z,1599082197,2020,21,30,246.8958,246.8958,88.4976,118.8952,-999.00,-999.00,-999.0,no,no,no,300534061907360,unknown,unknown,unknown,North
2020-09-02T22:00:02Z,1599084003,2020,22,0,246.9167,246.9167,88.5008,118.9252,-999.00,-999.00,-999.0,no,no,no,300534061907360,unknown,unknown,unknown,North
2020-09-02T22:30:00Z,1599085800,2020,22,30,246.9375,246.9375,88.504,118.9555,-999.00,-999.00,-999.0,no,no,no,300534061907360,unknown,unknown,unknown,North
2020-09-02T22:59:57Z,1599087597,2020,23,0,246.9583,246.9583,88.5073,118.9851,-999.00,-999.00,-999.0,no,no,no,300534061907360,unknown,unknown,unknown,North
2020-09-02T23:30:02Z,1599089403,2020,23,30,246.9792,246.9792,88.5107,119.0143,-999.00,-999.00,-999.0,no,no,no,300534061907360,unknown,unknown,unknown,North
2020-09-03T00:00:00Z,1599091200,2020,0,0,247.0,247.0,88.5142,119.0418,-999.00,-999.00,-999.0,no,no,no,300534061907360,unknown,unknown,unknown,North
2020-09-03T00:29:57Z,1599092997,2020,0,30,247.0208,247.0208,88.5178,119.0727,-999.00,-999.00,-999.0,no,no,no,300534061907360,unknown,unknown,unknown,North
2020-09-03T01:00:02Z,1599094803,2020,1,0,247.0417,247.0417,88.5214,119.1076,-999.00,-999.00,-999.0,no,no,no,300534061907360,unknown,unknown,unknown,North
2020-09-03T01:30:00Z,1599096600,2020,1,30,247.0625,247.0625,88.5251,119.1474,-999.00,-999.00,-999.0,no,no,no,300534061907360,unknown,unknown,unknown,North
2020-09-03T01:59:57Z,1599098397,2020,2,0,247.0833,247.0833,88.5288,119.1917,-999.00,-999.00,-999.0,no,no,no,300534061907360,unknown,unknown,unknown,North
2020-09-03T02:30:02Z,1599100203,2020,2,30,247.1042,247.1042,88.5326,119.2408,-999.00,-999.00,-999.0,no,no,no,300534061907360,unknown,unknown,unknown,North
2020-09-03T03:00:00Z,1599102000,2020,3,0,247.125,247.125,88.5363,119.2959,-999.00,-999.00,-999.0,no,no,no,300534061907360,unknown,unknown,unknown,North
2020-09-03T03:29:57Z,1599103797,2020,3,30,247.1458,247.1458,88.54,119.3576,-999.00,-999.00,-999.0,no,no,no,300534061907360,unknown,unknown,unknown,North
2020-09-03T04:00:02Z,1599105603,2020,4,0,247.1667,247.1667,88.5438,119.426,-999.00,-999.00,-999.0,no,no,no,300534061907360,unknown,unknown,unknown,North
2020-09-03T04:30:00Z,1599107400,2020,4,30,247.1875,247.1875,88.5474,119.4969,-999.00,-999.00,-999.0,no,no,no,300534061907360,unknown,unknown,unknown,North
2020-09-03T04:59:57Z,1599109197,2020,5,0,247.2083,247.2083,88.551,119.5699,-999.00,-999.00,-999.0,no,no,no,300534061907360,unknown,unknown,unknown,North
2020-09-03T05:30:02Z,1599111003,2020,5,30,247.2292,247.2292,88.5544,119.6435,-999.00,-999.00,-999.0,no,no,no,300534061907360,unknown,unknown,unknown,North
2020-09-03T06:00:00Z,1599112800,2020,6,0,247.25,247.25,88.5578,119.7152,-999.00,-999.00,-999.0,no,no,no,300534061907360,unknown,unknown,unknown,North
2020-09-03T06:29:57Z,1599114597,2020,6,30,247.2708,247.2708,88.5611,119.7855,-999.00,-999.00,-999.0,no,no,no,300534061907360,unknown,unknown,unknown,North
2020-09-03T07:00:02Z,1599116403,2020,7,0,247.2917,247.2917,88.5644,119.8524,-999.00,-999.00,-999.0,no,no,no,300534061907360,unknown,unknown,unknown,North
2020-09-03T07:30:00Z,1599118200,2020,7,30,247.3125,247.3125,88.5675,119.912,-999.00,-999.00,-999.0,no,no,no,300534061907360,unknown,unknown,unknown,North
2020-09-03T07:59:57Z,1599119997,2020,8,0,247.3333,247.3333,88.5706,119.9654,-999.00,-999.00,-999.0,no,no,no,300534061907360,unknown,unknown,unknown,North
2020-09-03T08:30:02Z,1599121803,2020,8,30,247.3542,247.3542,88.5736,120.0132,-999.00,-999.00,-999.0,no,no,no,300534061907360,unknown,unknown,unknown,North
2020-09-03T09:00:00Z,1599123600,2020,9,0,247.375,247.375,88.5765,120.0551,-999.00,-999.00,-999.0,no,no,no,300534061907360,unknown,unknown,unknown,North
2020-09-03T09:29:57Z,1599125397,2020,9,30,247.3958,247.3958,88.5795,120.0883,-999.00,-999.00,-999.0,no,no,no,300534061907360,unknown,unknown,unknown,North
2020-09-03T10:00:02Z,1599127203,2020,10,0,247.4167,247.4167,88.5826,120.1133,-999.00,-999.00,-999.0,no,no,no,300534061907360,unknown,unknown,unknown,North
2020-09-03T10:30:00Z,1599129000,2020,10,30,247.4375,247.4375,88.5857,120.1327,-999.00,-999.00,-999.0,no,no,no,300534061907360,unknown,unknown,unknown,North
2020-09-03T10:59:57Z,1599130797,2020,11,0,247.4583,247.4583,88.5889,120.1471,-999.00,-999.00,-999.0,no,no,no,300534061907360,unknown,unknown,unknown,North
2020-09-03T11:30:02Z,1599132603,2020,11,30,247.4792,247.4792,88.5922,120.1595,-999.00,-999.00,-999.0,no,no,no,300534061907360,unknown,unknown,unknown,North
2020-09-03T12:00:00Z,1599134400,2020,12,0,247.5,247.5,88.5956,120.1718,-999.00,-999.00,-999.0,no,no,no,300534061907360,unknown,unknown,unknown,North
2020-09-03T12:29:57Z,1599136197,2020,12,30,247.5208,247.5208,88.5991,120.1843,-999.00,-999.00,-999.0,no,no,no,300534061907360,unknown,unknown,unknown,North
2020-09-03T13:00:02Z,1599138003,2020,13,0,247.5417,247.5417,88.6027,120.1986,-999.00,-999.00,-999.0,no,no,no,300534061907360,unknown,unknown,unknown,North
2020-09-03T13:30:00Z,1599139800,2020,13,30,247.5625,247.5625,88.6064,120.2095,-999.00,-999.00,-999.0,no,no,no,300534061907360,unknown,unknown,unknown,North
2020-09-03T13:59:57Z,1599141597,2020,14,0,247.5833,247.5833,88.61,120.2202,-999.00,-999.00,-999.0,no,no,no,300534061907360,unknown,unknown,unknown,North
2020-09-03T14:30:02Z,1599143403,2020,14,30,247.6042,247.6042,88.6137,120.2338,-999.00,-999.00,-999.0,no,no,no,300534061907360,unknown,unknown,unknown,North
2020-09-03T15:00:00Z,1599145200,2020,15,0,247.625,247.625,88.6174,120.2501,-999.00,-999.00,-999.0,no,no,no,300534061907360,unknown,unknown,unknown,North
2020-09-03T15:29:57Z,1599146997,2020,15,30,247.6458,247.6458,88.6211,120.2712,-999.00,-999.00,-999.0,no,no,no,300534061907360,unknown,unknown,unknown,North
2020-09-03T16:00:02Z,1599148803,2020,16,0,247.6667,247.6667,88.6249,120.2983,-999.00,-999.00,-999.0,no,no,no,300534061907360,unknown,unknown,unknown,North
2020-09-03T16:30:00Z,1599150600,2020,16,30,247.6875,247.6875,88.6286,120.3311,-999.00,-999.00,-999.0,no,no,no,300534061907360,unknown,unknown,unknown,North
2020-09-03T16:59:57Z,1599152397,2020,17,0,247.7083,247.7083,88.6325,120.3731,-999.00,-999.00,-999.0,no,no,no,300534061907360,unknown,unknown,unknown,North
2020-09-03T17:30:02Z,1599154203,2020,17,30,247.7292,247.7292,88.6363,120.4215,-999.00,-999.00,-999.0,no,no,no,300534061907360,unknown,unknown,unknown,North
2020-09-03T18:00:00Z,1599156000,2020,18,0,247.75,247.75,88.64,120.4727,-999.00,-999.00,-999.0,no,no,no,300534061907360,unknown,unknown,unknown,North
2020-09-03T18:29:57Z,1599157797,2020,18,30,247.7708,247.7708,88.6435,120.5242,-999.00,-999.00,-999.0,no,no,no,300534061907360,unknown,unknown,unknown,North
2020-09-03T19:00:02Z,1599159603,2020,19,0,247.7917,247.7917,88.6467,120.5734,-999.00,-999.00,-999.0,no,no,no,300534061907360,unknown,unknown,unknown,North
2020-09-03T19:30:00Z,1599161400,2020,19,30,247.8125,247.8125,88.6499,120.6191,-999.00,-999.00,-999.0,no,no,no,300534061907360,unknown,unknown,unknown,North
2020-09-03T19:59:57Z,1599163197,2020,20,0,247.8333,247.8333,88.6528,120.6582,-999.00,-999.00,-999.0,no,no,no,300534061907360,unknown,unknown,unknown,North
2020-09-03T20:30:02Z,1599165003,2020,20,30,247.8542,247.8542,88.6556,120.6908,-999.00,-999.00,-999.0,no,no,no,300534061907360,unknown,unknown,unknown,North
2020-09-03T21:00:00Z,1599166800,2020,21,0,247.875,247.875,88.6582,120.7161,-999.00,-999.00,-999.0,no,no,no,300534061907360,unknown,unknown,unknown,North
2020-09-03T21:29:57Z,1599168597,2020,21,30,247.8958,247.8958,88.6607,120.7365,-999.00,-999.00,-999.0,no,no,no,300534061907360,unknown,unknown,unknown,North
2020-09-03T22:00:02Z,1599170403,2020,22,0,247.9167,247.9167,88.663,120.7503,-999.00,-999.00,-999.0,no,no,no,300534061907360,unknown,unknown,unknown,North
2020-09-03T22:30:00Z,1599172200,2020,22,30,247.9375,247.9375,88.6651,120.7531,-999.00,-999.00,-999.0,no,no,no,300534061907360,unknown,unknown,unknown,North
2020-09-03T22:59:57Z,1599173997,2020,23,0,247.9583,247.9583,88.6672,120.7473,-999.00,-999.00,-999.0,no,no,no,300534061907360,unknown,unknown,unknown,North
2020-09-03T23:30:02Z,1599175803,2020,23,30,247.9792,247.9792,88.6694,120.7316,-999.00,-999.00,-999.0,no,no,no,300534061907360,unknown,unknown,unknown,North
2020-09-04T00:00:00Z,1599177600,2020,0,0,248.0,248.0,88.6716,120.7108,-999.00,-999.00,-999.0,no,no,no,300534061907360,unknown,unknown,unknown,North
2020-09-04T00:29:57Z,1599179397,2020,0,30,248.0208,248.0208,88.6738,120.6886,-999.00,-999.00,-999.0,no,no,no,300534061907360,unknown,unknown,unknown,North
2020-09-04T01:00:02Z,1599181203,2020,1,0,248.0417,248.0417,88.6762,120.6705,-999.00,-999.00,-999.0,no,no,no,300534061907360,unknown,unknown,unknown,North
2020-09-04T01:30:00Z,1599183000,2020,1,30,248.0625,248.0625,88.6786,120.6572,-999.00,-999.00,-999.0,no,no,no,300534061907360,unknown,unknown,unknown,North
2020-09-04T01:59:57Z,1599184797,2020,2,0,248.0833,248.0833,88.681,120.6505,-999.00,-999.00,-999.0,no,no,no,300534061907360,unknown,unknown,unknown,North
2020-09-04T02:30:02Z,1599186603,2020,2,30,248.1042,248.1042,88.6837,120.6524,-999.00,-999.00,-999.0,no,no,no,300534061907360,unknown,unknown,unknown,North
2020-09-04T03:00:00Z,1599188400,2020,3,0,248.125,248.125,88.6864,120.6631,-999.00,-999.00,-999.0,no,no,no,300534061907360,unknown,unknown,unknown,North
2020-09-04T03:29:57Z,1599190197,2020,3,30,248.1458,248.1458,88.689,120.6819,-999.00,-999.00,-999.0,no,no,no,300534061907360,unknown,unknown,unknown,North
2020-09-04T04:00:02Z,1599192003,2020,4,0,248.1667,248.1667,88.6916,120.7096,-999.00,-999.00,-999.0,no,no,no,300534061907360,unknown,unknown,unknown,North
2020-09-04T04:30:00Z,1599193800,2020,4,30,248.1875,248.1875,88.6941,120.7433,-999.00,-999.00,-999.0,no,no,no,300534061907360,unknown,unknown,unknown,North
2020-09-04T04:59:57Z,1599195597,2020,5,0,248.2083,248.2083,88.6963,120.7811,-999.00,-999.00,-999.0,no,no,no,300534061907360,unknown,unknown,unknown,North
2020-09-04T05:30:02Z,1599197403,2020,5,30,248.2292,248.2292,88.6984,120.8186,-999.00,-999.00,-999.0,no,no,no,300534061907360,unknown,unknown,unknown,North
2020-09-04T06:00:00Z,1599199200,2020,6,0,248.25,248.25,88.7,120.8504,-999.00,-999.00,-999.0,no,no,no,300534061907360,unknown,unknown,unknown,North
2020-09-04T06:29:57Z,1599200997,2020,6,30,248.2708,248.2708,88.7017,120.8765,-999.00,-999.00,-999.0,no,no,no,300534061907360,unknown,unknown,unknown,North
2020-09-04T07:00:02Z,1599202803,2020,7,0,248.2917,248.2917,88.7034,120.8985,-999.00,-999.00,-999.0,no,no,no,300534061907360,unknown,unknown,unknown,North
2020-09-04T07:30:00Z,1599204600,2020,7,30,248.3125,248.3125,88.7051,120.9094,-999.00,-999.00,-999.0,no,no,no,300534061907360,unknown,unknown,unknown,North
2020-09-04T07:59:57Z,1599206397,2020,8,0,248.3333,248.3333,88.7068,120.9141,-999.00,-999.00,-999.0,no,no,no,300534061907360,unknown,unknown,unknown,North
2020-09-04T08:30:02Z,1599208203,2020,8,30,248.3542,248.3542,88.7085,120.9133,-999.00,-999.00,-999.0,no,no,no,300534061907360,unknown,unknown,unknown,North
2020-09-04T09:00:00Z,1599210000,2020,9,0,248.375,248.375,88.7101,120.9048,-999.00,-999.00,-999.0,no,no,no,300534061907360,unknown,unknown,unknown,North
2020-09-04T09:29:57Z,1599211797,2020,9,30,248.3958,248.3958,88.7118,120.8859,-999.00,-999.00,-999.0,no,no,no,300534061907360,unknown,unknown,unknown,North
2020-09-04T10:00:02Z,1599213603,2020,10,0,248.4167,248.4167,88.7136,120.8576,-999.00,-999.00,-999.0,no,no,no,300534061907360,unknown,unknown,unknown,North
2020-09-04T10:30:00Z,1599215400,2020,10,30,248.4375,248.4375,88.7154,120.8238,-999.00,-999.00,-999.0,no,no,no,300534061907360,unknown,unknown,unknown,North
2020-09-04T10:59:57Z,1599217197,2020,11,0,248.4583,248.4583,88.7171,120.7851,-999.00,-999.00,-999.0,no,no,no,300534061907360,unknown,unknown,unknown,North
2020-09-04T11:30:02Z,1599219003,2020,11,30,248.4792,248.4792,88.7188,120.7444,-999.00,-999.00,-999.0,no,no,no,300534061907360,unknown,unknown,unknown,North
2020-09-04T12:00:00Z,1599220800,2020,12,0,248.5,248.5,88.7205,120.6999,-999.00,-999.00,-999.0,no,no,no,300534061907360,unknown,unknown,unknown,North
2020-09-04T12:29:57Z,1599222597,2020,12,30,248.5208,248.5208,88.7225,120.6572,-999.00,-999.00,-999.0,no,no,no,300534061907360,unknown,unknown,unknown,North
2020-09-04T13:00:02Z,1599224403,2020,13,0,248.5417,248.5417,88.7244,120.6117,-999.00,-999.00,-999.0,no,no,no,300534061907360,unknown,unknown,unknown,North
2020-09-04T13:30:00Z,1599226200,2020,13,30,248.5625,248.5625,88.7264,120.5648,-999.00,-999.00,-999.0,no,no,no,300534061907360,unknown,unknown,unknown,North
2020-09-04T13:59:57Z,1599227997,2020,14,0,248.5833,248.5833,88.7284,120.5238,-999.00,-999.00,-999.0,no,no,no,300534061907360,unknown,unknown,unknown,North
2020-09-04T14:30:02Z,1599229803,2020,14,30,248.6042,248.6042,88.7304,120.4857,-999.00,-999.00,-999.0,no,no,no,300534061907360,unknown,unknown,unknown,North
2020-09-04T15:00:00Z,1599231600,2020,15,0,248.625,248.625,88.7324,120.4501,-999.00,-999.00,-999.0,no,no,no,300534061907360,unknown,unknown,unknown,North
2020-09-04T15:29:57Z,1599233397,2020,15,30,248.6458,248.6458,88.7342,120.4139,-999.00,-999.00,-999.0,no,no,no,300534061907360,unknown,unknown,unknown,North
2020-09-04T16:00:02Z,1599235203,2020,16,0,248.6667,248.6667,88.7361,120.3774,-999.00,-999.00,-999.0,no,no,no,300534061907360,unknown,unknown,unknown,North
2020-09-04T16:30:00Z,1599237000,2020,16,30,248.6875,248.6875,88.7379,120.3442,-999.00,-999.00,-999.0,no,no,no,300534061907360,unknown,unknown,unknown,North
2020-09-04T16:59:57Z,1599238797,2020,17,0,248.7083,248.7083,88.7394,120.3147,-999.00,-999.00,-999.0,no,no,no,300534061907360,unknown,unknown,unknown,North
2020-09-04T17:30:02Z,1599240603,2020,17,30,248.7292,248.7292,88.7408,120.287,-999.00,-999.00,-999.0,no,no,no,300534061907360,unknown,unknown,unknown,North
2020-09-04T18:00:00Z,1599242400,2020,18,0,248.75,248.75,88.742,120.2601,-999.00,-999.00,-999.0,no,no,no,300534061907360,unknown,unknown,unknown,North
2020-09-04T18:29:57Z,1599244197,2020,18,30,248.7708,248.7708,88.7428,120.2282,-999.00,-999.00,-999.0,no,no,no,300534061907360,unknown,unknown,unknown,North
2020-09-04T19:00:02Z,1599246003,2020,19,0,248.7917,248.7917,88.7435,120.1937,-999.00,-999.00,-999.0,no,no,no,300534061907360,unknown,unknown,unknown,North
2020-09-04T19:30:00Z,1599247800,2020,19,30,248.8125,248.8125,88.7441,120.1566,-999.00,-999.00,-999.0,no,no,no,300534061907360,unknown,unknown,unknown,North
2020-09-04T19:59:57Z,1599249597,2020,20,0,248.8333,248.8333,88.7444,120.1155,-999.00,-999.00,-999.0,no,no,no,300534061907360,unknown,unknown,unknown,North
2020-09-04T20:30:02Z,1599251403,2020,20,30,248.8542,248.8542,88.7447,120.0722,-999.00,-999.00,-999.0,no,no,no,300534061907360,unknown,unknown,unknown,North
2020-09-04T21:00:00Z,1599253200,2020,21,0,248.875,248.875,88.7448,120.0273,-999.00,-999.00,-999.0,no,no,no,300534061907360,unknown,unknown,unknown,North
2020-09-04T21:29:57Z,1599254997,2020,21,30,248.8958,248.8958,88.7449,119.9816,-999.00,-999.00,-999.0,no,no,no,300534061907360,unknown,unknown,unknown,North
2020-09-04T22:00:02Z,1599256803,2020,22,0,248.9167,248.9167,88.7449,119.9336,-999.00,-999.00,-999.0,no,no,no,300534061907360,unknown,unknown,unknown,North
2020-09-04T22:30:00Z,1599258600,2020,22,30,248.9375,248.9375,88.7449,119.885,-999.00,-999.00,-999.0,no,no,no,300534061907360,unknown,unknown,unknown,North
2020-09-04T22:59:57Z,1599260397,2020,23,0,248.9583,248.9583,88.7449,119.8347,-999.00,-999.00,-999.0,no,no,no,300534061907360,unknown,unknown,unknown,North
2020-09-04T23:30:02Z,1599262203,2020,23,30,248.9792,248.9792,88.7449,119.7843,-999.00,-999.00,-999.0,no,no,no,300534061907360,unknown,unknown,unknown,North
2020-09-05T00:00:00Z,1599264000,2020,0,0,249.0,249.0,88.745,119.7388,-999.00,-999.00,-999.0,no,no,no,300534061907360,unknown,unknown,unknown,North
2020-09-05T00:29:57Z,1599265797,2020,0,30,249.0208,249.0208,88.7451,119.6953,-999.00,-999.00,-999.0,no,no,no,300534061907360,unknown,unknown,unknown,North
2020-09-05T01:00:02Z,1599267603,2020,1,0,249.0417,249.0417,88.7452,119.6575,-999.00,-999.00,-999.0,no,no,no,300534061907360,unknown,unknown,unknown,North
2020-09-05T01:30:00Z,1599269400,2020,1,30,249.0625,249.0625,88.7454,119.6256,-999.00,-999.00,-999.0,no,no,no,300534061907360,unknown,unknown,unknown,North
2020-09-05T01:59:57Z,1599271197,2020,2,0,249.0833,249.0833,88.7456,119.5999,-999.00,-999.00,-999.0,no,no,no,300534061907360,unknown,unknown,unknown,North
2020-09-05T02:30:02Z,1599273003,2020,2,30,249.1042,249.1042,88.7458,119.5795,-999.00,-999.00,-999.0,no,no,no,300534061907360,unknown,unknown,unknown,North
2020-09-05T03:00:00Z,1599274800,2020,3,0,249.125,249.125,88.746,119.5624,-999.00,-999.00,-999.0,no,no,no,300534061907360,unknown,unknown,unknown,North
2020-09-05T03:29:57Z,1599276597,2020,3,30,249.1458,249.1458,88.7461,119.5528,-999.00,-999.00,-999.0,no,no,no,300534061907360,unknown,unknown,unknown,North
2020-09-05T04:00:02Z,1599278403,2020,4,0,249.1667,249.1667,88.7462,119.5501,-999.00,-999.00,-999.0,no,no,no,300534061907360,unknown,unknown,unknown,North
2020-09-05T04:30:00Z,1599280200,2020,4,30,249.1875,249.1875,88.7463,119.555,-999.00,-999.00,-999.0,no,no,no,300534061907360,unknown,unknown,unknown,North
2020-09-05T04:59:57Z,1599281997,2020,5,0,249.2083,249.2083,88.7462,119.5625,-999.00,-999.00,-999.0,no,no,no,300534061907360,unknown,unknown,unknown,North
2020-09-05T05:30:02Z,1599283803,2020,5,30,249.2292,249.2292,88.7461,119.5709,-999.00,-999.00,-999.0,no,no,no,300534061907360,unknown,unknown,unknown,North
2020-09-05T06:00:00Z,1599285600,2020,6,0,249.25,249.25,88.7458,119.5808,-999.00,-999.00,-999.0,no,no,no,300534061907360,unknown,unknown,unknown,North
2020-09-05T06:29:57Z,1599287397,2020,6,30,249.2708,249.2708,88.7455,119.59,-999.00,-999.00,-999.0,no,no,no,300534061907360,unknown,unknown,unknown,North
2020-09-05T07:00:02Z,1599289203,2020,7,0,249.2917,249.2917,88.745,119.5963,-999.00,-999.00,-999.0,no,no,no,300534061907360,unknown,unknown,unknown,North
2020-09-05T07:30:00Z,1599291000,2020,7,30,249.3125,249.3125,88.7446,119.597,-999.00,-999.00,-999.0,no,no,no,300534061907360,unknown,unknown,unknown,North
2020-09-05T07:59:57Z,1599292797,2020,8,0,249.3333,249.3333,88.7441,119.5904,-999.00,-999.00,-999.0,no,no,no,300534061907360,unknown,unknown,unknown,North
2020-09-05T08:30:02Z,1599294603,2020,8,30,249.3542,249.3542,88.7436,119.5763,-999.00,-999.00,-999.0,no,no,no,300534061907360,unknown,unknown,unknown,North
2020-09-05T09:00:00Z,1599296400,2020,9,0,249.375,249.375,88.7431,119.5534,-999.00,-999.00,-999.0,no,no,no,300534061907360,unknown,unknown,unknown,North
2020-09-05T09:29:57Z,1599298197,2020,9,30,249.3958,249.3958,88.7428,119.5263,-999.00,-999.00,-999.0,no,no,no,300534061907360,unknown,unknown,unknown,North
2020-09-05T10:00:02Z,1599300003,2020,10,0,249.4167,249.4167,88.7425,119.4948,-999.00,-999.00,-999.0,no,no,no,300534061907360,unknown,unknown,unknown,North
2020-09-05T10:30:00Z,1599301800,2020,10,30,249.4375,249.4375,88.7424,119.463,-999.00,-999.00,-999.0,no,no,no,300534061907360,unknown,unknown,unknown,North
2020-09-05T10:59:57Z,1599303597,2020,11,0,249.4583,249.4583,88.7424,119.4246,-999.00,-999.00,-999.0,no,no,no,300534061907360,unknown,unknown,unknown,North
2020-09-05T11:30:02Z,1599305403,2020,11,30,249.4792,249.4792,88.7424,119.3847,-999.00,-999.00,-999.0,no,no,no,300534061907360,unknown,unknown,unknown,North
2020-09-05T12:00:00Z,1599307200,2020,12,0,249.5,249.5,88.7424,119.3549,-999.00,-999.00,-999.0,no,no,no,300534061907360,unknown,unknown,unknown,North
2020-09-05T12:29:57Z,1599308997,2020,12,30,249.5208,249.5208,88.7422,119.3412,-999.00,-999.00,-999.0,no,no,no,300534061907360,unknown,unknown,unknown,North
2020-09-05T13:00:02Z,1599310803,2020,13,0,249.5417,249.5417,88.742,119.3387,-999.00,-999.00,-999.0,no,no,no,300534061907360,unknown,unknown,unknown,North
2020-09-05T13:30:00Z,1599312600,2020,13,30,249.5625,249.5625,88.7417,119.3395,-999.00,-999.00,-999.0,no,no,no,300534061907360,unknown,unknown,unknown,North
2020-09-05T13:59:57Z,1599314397,2020,14,0,249.5833,249.5833,88.7412,119.3367,-999.00,-999.00,-999.0,no,no,no,300534061907360,unknown,unknown,unknown,North
2020-09-05T14:30:02Z,1599316203,2020,14,30,249.6042,249.6042,88.7407,119.3364,-999.00,-999.00,-999.0,no,no,no,300534061907360,unknown,unknown,unknown,North